Estación de Lluta Medio

Ultimos registro cada 15 minutos 25
Estación Fecha / Hora Temperatura Humedad Lluvia Velocidad Dirección Radiación Presion
25 Lluta Medio 31-08-2026 06:00 15,4 79,3 0 0 0 0,1 957
24 Lluta Medio 31-08-2026 05:45 15,4 78,8 0 0,2 306 0,2 957
23 Lluta Medio 31-08-2026 05:30 15,4 78,2 0 0 0 0,2 957
22 Lluta Medio 31-08-2026 05:15 15,4 78,9 0 0,3 308 0,1 958
21 Lluta Medio 31-08-2026 05:00 15,4 80 0 0,2 308 0,1 958
20 Lluta Medio 31-08-2026 04:45 15,4 80,1 0 0,6 307 0,2 958
19 Lluta Medio 31-08-2026 04:30 15,3 82,4 0 0 0 0,2 958
18 Lluta Medio 31-08-2026 04:15 15,2 82,9 0 0 0 0,2 958
17 Lluta Medio 31-08-2026 04:00 15,1 83,2 0 0 0 0,2 958
16 Lluta Medio 31-08-2026 03:45 15,2 86,5 0 0 0 0,2 958
15 Lluta Medio 31-08-2026 03:30 15,2 85,9 0 0 0 0,2 958
14 Lluta Medio 31-08-2026 03:15 15,2 86,9 0 0 0 0,2 958
13 Lluta Medio 31-08-2026 03:00 15,3 86,1 0 0,4 280 0,2 958
12 Lluta Medio 31-08-2026 02:45 15,6 85,2 0 0,7 285 0,1 958
11 Lluta Medio 31-08-2026 02:30 15,6 81,2 0 0 0 0,1 958
10 Lluta Medio 31-08-2026 02:15 15,7 82,5 0 0,1 287 0,1 958
9 Lluta Medio 31-08-2026 02:00 15,7 80 0 0 0 0,2 958
8 Lluta Medio 31-08-2026 01:45 15,7 81,8 0 0,1 342 0,1 959
7 Lluta Medio 31-08-2026 01:30 15,8 81,2 0 0 0 0,1 959
6 Lluta Medio 31-08-2026 01:15 15,7 80,6 0 0 0 0,1 959
5 Lluta Medio 31-08-2026 01:00 15,7 80,9 0 0,1 0 0,1 959
4 Lluta Medio 31-08-2026 00:45 15,7 81,7 0 0 0 0,1 959
3 Lluta Medio 31-08-2026 00:30 15,7 82,3 0 0 0 0,1 959
2 Lluta Medio 31-08-2026 00:15 15,8 81,2 0 0 0 0,1 959
1 Lluta Medio 31-08-2026 00:00 15,7 82 0 0 0 0,1 959